Bainsville, Ontario

8:59 AM EST on December 05, 2016 (GMT -0500)
St.-Anicet

Weather History for CWBZ - October, 2012

Change the Weather History Date:

Monday, October 15, 2012

  Actual Average Record
Temperature  
Mean Temperature 58 °F -  
Max Temperature 69 °F - - ()
Min Temperature 48 °F - - ()
Degree Days  
Heating Degree Days 6    
Growing Degree Days 8 (Base 50)    
Moisture  
Dew Point 51 °F    
Average Humidity 76    
Maximum Humidity 99    
Minimum Humidity 48    
Precipitation  
Precipitation 0.00 in - - ()
Sea Level Pressure  
Sea Level Pressure 29.56 in    
Wind  
Wind Speed 6 mph ()    
Max Wind Speed 18 mph    
Max Gust Speed -    
T = Trace of Precipitation, MM = Missing Value Source: Averaged Metar Reports

Daily Weather History Graph

Daily Weather History Graph

Search for Another Location

Airport or City:

Trip Planner

Search our weather history database for the weather conditions in past years. The results will help you decide how hot, cold, wet, or windy it might be!

Date:

Astronomy

Oct. 15, 2012 Rise Set
Actual Time 7:13 AM EDT 6:11 PM EDT
Civil Twilight 6:43 AM EDT 6:40 PM EDT
Nautical Twilight 6:09 AM EDT 7:14 PM EDT
Astronomical Twilight 5:35 AM EDT 7:48 PM EDT
Moon 7:23 AM EDT (10/15) 6:05 PM EDT (10/15)
Length of Visible Light 11h 57m
Length of Day
10h 57m
New Moon, 0% of the Moon is Illuminated
Oct 15
New Moon
Oct 21
First Quarter
Oct 29
Full
Nov 6
Last Quarter
Nov 13
New

Hourly Weather History & Observations

Time (EDT) Temp. Dew Point Humidity Pressure Visibility Wind Dir Wind Speed Gust Speed Precip Events Conditions
12:00 AM 51.4 °F 51.1 °F 99% 29.67 in - NE 3.5 mph - 0.05 in   Unknown
1:00 AM 50.9 °F 50.5 °F 99% 29.66 in - East 2.3 mph - N/A   Unknown
2:00 AM 51 °F 51 °F 99% 29.62 in - East 3.5 mph - -  
2:00 AM 51.1 °F 50.7 °F 99% 29.62 in - East 3.5 mph - N/A   Unknown
3:00 AM 52.0 °F 51.6 °F 99% 29.59 in - North 2.3 mph - N/A   Unknown
4:00 AM 60.4 °F 60.1 °F 99% 29.55 in - SW 4.6 mph - N/A   Unknown
5:00 AM 61.7 °F 56.8 °F 84% 29.54 in - SSW 4.6 mph - N/A   Unknown
6:00 AM 61.7 °F 56.3 °F 82% 29.52 in - South 3.5 mph - N/A   Unknown
7:00 AM 61.2 °F 55.2 °F 81% 29.50 in - South 3.5 mph - N/A   Unknown
8:00 AM 63 °F 55 °F 67% 29.49 in - South 4.6 mph - -  
8:00 AM 63.0 °F 54.9 °F 75% 29.49 in - South 4.6 mph - N/A   Unknown
9:00 AM 66.4 °F 55.8 °F 69% 29.49 in - SSW 4.6 mph - N/A   Unknown
10:00 AM 68.2 °F 56.3 °F 66% 29.49 in - SSW 5.8 mph - N/A   Unknown
11:00 AM 65.1 °F 55.9 °F 72% 29.52 in - WSW 18.4 mph - N/A   Unknown
12:00 PM 61.9 °F 53.1 °F 73% 29.55 in - WSW 15.0 mph - N/A   Unknown
1:00 PM 61.9 °F 50.4 °F 66% 29.56 in - WSW 16.1 mph - N/A   Unknown
2:00 PM 63 °F 48 °F 48% 29.56 in - WSW 12.7 mph - -  
2:00 PM 62.8 °F 48.2 °F 59% 29.56 in - WSW 12.7 mph - N/A   Unknown
3:00 PM 62.1 °F 48.4 °F 61% 29.57 in - WSW 15.0 mph - N/A   Unknown
4:00 PM 60.1 °F 48.7 °F 66% 29.57 in - SW 13.8 mph - N/A   Unknown
5:00 PM 59.5 °F 48.9 °F 68% 29.57 in - WSW 13.8 mph - N/A   Unknown
6:00 PM 56.5 °F 49.1 °F 76% 29.57 in - SW 11.5 mph - N/A   Unknown
7:00 PM 54.9 °F 47.8 °F 77% 29.58 in - SW 10.4 mph - N/A   Unknown
8:00 PM 55 °F 47 °F 66% 29.59 in - SW 12.7 mph - -  
8:00 PM 55.0 °F 46.8 °F 74% 29.59 in - SW 12.7 mph - N/A   Unknown
9:00 PM 53.8 °F 45.1 °F 73% 29.59 in - SW 9.2 mph - N/A   Unknown
10:00 PM 54.1 °F 43.7 °F 68% 29.58 in - SW 12.7 mph - N/A   Unknown
11:00 PM 53.1 °F 42.8 °F 68% 29.58 in - WSW 10.4 mph - N/A   Unknown